Weather History for Watford City, ND

Change the Weather History Date:

Friday, July 12, 2013

  Actual Average (KISN) Record (KISN)
Temperature  
Mean Temperature 72 °F 70 °F  
Max Temperature 82 °F 84 °F 100 °F (1968)
Min Temperature 62 °F 56 °F 41 °F (1993)
Degree Days  
Heating Degree Days 0 1  
Month to date heating degree days 14  
Since 1 June heating degree days 134  
Since 1 July heating degree days 14  
Cooling Degree Days 7 6  
Month to date cooling degree days 57  
Year to date cooling degree days 138  
Since 1 June cooling degree days 125  
Growing Degree Days 22 (Base 50)    
Moisture  
Dew Point 63 °F    
Average Humidity 74    
Maximum Humidity 100    
Minimum Humidity 37    
Precipitation  
Precipitation 0.00 in 0.09 in 0.98 in (1948)
Month to date precipitation 1.16  
Year to date precipitation 8.29  
Sea Level Pressure  
Sea Level Pressure 29.77 in    
Wind  
Wind Speed 4 mph (WNW)    
Max Wind Speed 10 mph    
Max Gust Speed -    
Visibility 10 miles    
Events Rain    
T = Trace of Precipitation, MM = Missing Value Source: NWS Daily Summary

Daily Weather History Graph

Daily Weather History Graph

Search for Another Location

Airport:

Trip Planner

Search our weather history database for the weather conditions in past years. The results will help you decide how hot, cold, wet, or windy it might be!

Date:

Astronomy

Jul. 12, 2013 Rise Set
Actual Time 6:07 AM CDT 9:49 PM CDT
Civil Twilight 5:27 AM CDT 10:28 PM CDT
Nautical Twilight 4:34 AM CDT 11:21 PM CDT
Astronomical Twilight 3:18 AM CDT 12:36 AM CDT
Moon 10:49 AM CDT (7/12) 11:35 PM CDT (7/12)
Length of Visible Light 17h 00m
Length of Day
15h 42m
Waxing Crescent, 17% of the Moon is Illuminated
Jul 12
Waxing Crescent
Jul 15
First Quarter
Jul 22
Full
Jul 29
Last Quarter
Aug 6
New

Hourly Weather History & Observations

Time (CDT) Temp. Heat Index Dew Point Humidity Pressure Visibility Wind Dir Wind Speed Gust Speed Precip Events Conditions
12:15 AM 68.0 °F - 66.2 °F 94% 29.67 in 10.0 mi SSE 9.2 mph - N/A   Partly Cloudy
12:35 AM 68.0 °F - 64.4 °F 88% 29.68 in 10.0 mi South 5.8 mph - N/A   Partly Cloudy
12:55 AM 69.8 °F - 64.4 °F 83% 29.68 in 10.0 mi SSW 6.9 mph - N/A Rain Light Rain
1:15 AM 68.0 °F - 66.2 °F 94% 29.68 in 10.0 mi Calm Calm - N/A   Scattered Clouds
1:35 AM 69.8 °F - 64.4 °F 83% 29.68 in 10.0 mi South 4.6 mph - N/A   Partly Cloudy
1:55 AM 68.0 °F - 64.4 °F 88% 29.67 in 10.0 mi NW 3.5 mph - N/A   Scattered Clouds
2:15 AM 68.0 °F - 64.4 °F 88% 29.66 in 10.0 mi East 3.5 mph - N/A   Partly Cloudy
2:35 AM 68.0 °F - 66.2 °F 94% 29.67 in 10.0 mi WNW 3.5 mph - N/A   Mostly Cloudy
2:55 AM 68.0 °F - 66.2 °F 94% 29.69 in 10.0 mi West 3.5 mph - N/A   Overcast
3:15 AM 71.6 °F - 62.6 °F 73% 29.69 in 10.0 mi NW 6.9 mph - N/A   Scattered Clouds
3:35 AM 71.6 °F - 64.4 °F 78% 29.71 in 10.0 mi Calm Calm - N/A   Scattered Clouds
3:55 AM 69.8 °F - 64.4 °F 83% 29.70 in 10.0 mi Calm Calm - N/A   Scattered Clouds
4:15 AM 68.0 °F - 64.4 °F 88% 29.71 in 10.0 mi Calm Calm - N/A   Partly Cloudy
4:35 AM 68.0 °F - 66.2 °F 94% 29.70 in 10.0 mi Calm Calm - N/A   Mostly Cloudy
4:55 AM 68.0 °F - 64.4 °F 88% 29.70 in 10.0 mi North 3.5 mph - N/A   Scattered Clouds
5:15 AM 66.2 °F - 64.4 °F 94% 29.69 in 10.0 mi Calm Calm - N/A   Partly Cloudy
5:35 AM 66.2 °F - 64.4 °F 94% 29.70 in 10.0 mi Calm Calm - N/A   Clear
5:55 AM 66.2 °F - 64.4 °F 94% 29.72 in 10.0 mi Calm Calm - N/A   Partly Cloudy
6:15 AM 66.2 °F - 66.2 °F 100% 29.72 in 10.0 mi Calm Calm - N/A   Mostly Cloudy
6:35 AM 66.2 °F - 66.2 °F 100% 29.72 in 10.0 mi South 4.6 mph - N/A   Scattered Clouds
6:55 AM 66.2 °F - 66.2 °F 100% 29.73 in 10.0 mi Calm Calm - N/A   Mostly Cloudy
7:15 AM 66.2 °F - 66.2 °F 100% 29.73 in 10.0 mi SSW 3.5 mph - N/A   Mostly Cloudy
7:35 AM 66.2 °F - 66.2 °F 100% 29.73 in 10.0 mi Calm Calm - N/A   Partly Cloudy
7:55 AM 68.0 °F - 66.2 °F 94% 29.74 in 10.0 mi SW 3.5 mph - N/A   Partly Cloudy
8:15 AM 66.2 °F - 66.2 °F 100% 29.74 in 10.0 mi Calm Calm - N/A   Clear
8:35 AM 68.0 °F - 66.2 °F 94% 29.75 in 10.0 mi Calm Calm - N/A   Partly Cloudy
8:55 AM 68.0 °F - 66.2 °F 94% 29.75 in 10.0 mi SW 3.5 mph - N/A   Scattered Clouds
9:15 AM 68.0 °F - 66.2 °F 94% 29.74 in 10.0 mi Calm Calm - N/A   Scattered Clouds
9:35 AM 69.8 °F - 64.4 °F 83% 29.75 in 10.0 mi Calm Calm - N/A   Scattered Clouds
9:55 AM 69.8 °F - 66.2 °F 88% 29.75 in 10.0 mi NNE 4.6 mph - N/A   Scattered Clouds
10:15 AM 71.6 °F - 66.2 °F 83% 29.74 in 10.0 mi Calm Calm - N/A   Partly Cloudy
10:35 AM 73.4 °F - 66.2 °F 78% 29.74 in 10.0 mi South 3.5 mph - N/A   Clear
11:15 AM 73.4 °F - 66.2 °F 78% 29.75 in 10.0 mi SW 4.6 mph - N/A   Clear
11:35 AM 75.2 °F - 66.2 °F 73% 29.75 in 10.0 mi SW 6.9 mph - N/A   Partly Cloudy
11:55 AM 75.2 °F - 64.4 °F 69% 29.76 in 10.0 mi West 9.2 mph - N/A   Clear
12:15 PM 75.2 °F - 64.4 °F 69% 29.77 in 10.0 mi West 5.8 mph - N/A   Partly Cloudy
12:35 PM 77.0 °F - 64.4 °F 65% 29.78 in 10.0 mi West 8.1 mph - N/A   Partly Cloudy
12:55 PM 77.0 °F - 64.4 °F 65% 29.78 in 10.0 mi WSW 8.1 mph - N/A   Clear
1:15 PM 77.0 °F - 66.2 °F 69% 29.79 in 10.0 mi WSW 9.2 mph - N/A   Partly Cloudy
1:35 PM 80.6 °F 82.7 °F 66.2 °F 61% 29.79 in 10.0 mi WSW 8.1 mph - N/A   Clear
1:55 PM 80.6 °F 81.8 °F 62.6 °F 54% 29.80 in 10.0 mi NNW 6.9 mph - N/A   Clear
2:15 PM 77.0 °F - 64.4 °F 65% 29.80 in 10.0 mi NNW 5.8 mph - N/A   Clear
2:35 PM 80.6 °F 82.3 °F 64.4 °F 58% 29.81 in 10.0 mi NW 10.4 mph - N/A   Clear
2:55 PM 80.6 °F 81.5 °F 60.8 °F 51% 29.82 in 10.0 mi NW 8.1 mph - N/A   Clear
3:15 PM 80.6 °F 81.5 °F 60.8 °F 51% 29.82 in 10.0 mi NW 6.9 mph - N/A   Partly Cloudy
3:35 PM 82.4 °F 82.5 °F 59.0 °F 45% 29.82 in 10.0 mi North 4.6 mph - N/A   Clear
3:55 PM 82.4 °F 82.5 °F 59.0 °F 45% 29.82 in 10.0 mi NNW 8.1 mph - N/A   Clear
4:15 PM 82.4 °F 82.5 °F 59.0 °F 45% 29.82 in 10.0 mi North 3.5 mph - N/A   Clear
4:35 PM 82.4 °F 82.9 °F 60.8 °F 48% 29.82 in 10.0 mi North 8.1 mph - N/A   Clear
4:55 PM 82.4 °F 81.7 °F 55.4 °F 39% 29.82 in 10.0 mi NNW 6.9 mph - N/A   Clear
5:15 PM 82.4 °F 81.4 °F 53.6 °F 37% 29.83 in 10.0 mi WNW 8.1 mph - N/A   Clear
5:35 PM 82.4 °F 81.7 °F 55.4 °F 39% 29.83 in 10.0 mi NW 5.8 mph - N/A   Clear
5:55 PM 82.4 °F 81.7 °F 55.4 °F 39% 29.83 in 10.0 mi WNW 5.8 mph - N/A   Clear
6:15 PM 82.4 °F 81.7 °F 55.4 °F 39% 29.83 in 10.0 mi NNW 5.8 mph - N/A   Clear
6:35 PM 82.4 °F 81.7 °F 55.4 °F 39% 29.83 in 10.0 mi NNW 6.9 mph - N/A   Clear
6:55 PM 82.4 °F 82.0 °F 57.2 °F 42% 29.83 in 10.0 mi NW 4.6 mph - N/A   Clear
7:15 PM 82.4 °F 82.0 °F 57.2 °F 42% 29.83 in 10.0 mi NNE 3.5 mph - N/A   Clear
7:35 PM 80.6 °F 81.1 °F 59.0 °F 48% 29.83 in 10.0 mi North 3.5 mph - N/A   Clear
7:55 PM 80.6 °F 81.8 °F 62.6 °F 54% 29.84 in 10.0 mi NNE 4.6 mph - N/A   Clear
8:15 PM 80.6 °F 81.5 °F 60.8 °F 51% 29.84 in 10.0 mi NNE 3.5 mph - N/A   Clear
8:35 PM 78.8 °F - 64.4 °F 61% 29.84 in 10.0 mi Calm Calm - N/A   Clear
8:55 PM 77.0 °F - 66.2 °F 69% 29.85 in 10.0 mi East 3.5 mph - N/A   Clear
9:15 PM 75.2 °F - 66.2 °F 73% 29.85 in 10.0 mi East 3.5 mph - N/A   Clear
9:35 PM 71.6 °F - 64.4 °F 78% 29.85 in 10.0 mi East 4.6 mph - N/A   Clear
9:55 PM 68.0 °F - 62.6 °F 83% 29.86 in 10.0 mi ESE 6.9 mph - N/A   Clear
10:15 PM 66.2 °F - 60.8 °F 83% 29.87 in 10.0 mi ESE 5.8 mph - N/A   Clear
10:35 PM 66.2 °F - 62.6 °F 88% 29.88 in 10.0 mi Calm Calm - N/A   Clear
10:55 PM 64.4 °F - 62.6 °F 94% 29.89 in 10.0 mi WSW 3.5 mph - N/A   Clear
11:15 PM 62.6 °F - 60.8 °F 94% 29.90 in 10.0 mi Calm Calm - N/A   Clear
11:35 PM 62.6 °F - 60.8 °F 94% 29.90 in 10.0 mi Calm Calm - N/A   Clear
11:55 PM 62.6 °F - 59.0 °F 88% 29.91 in 10.0 mi Calm Calm - N/A   Clear